Location: Newark
(49.8969°N, 3.3422°E)
Time: 05:22:48
(UTC+00:00)

A-11 Canister half - Visible Passes

Search period start: 24 January 2020 00:00
Search period end: 03 February 2020 00:00
Orbit: 1525 x 1684 km, 47.3° (Epoch: 23 January)

Date Brightness Start Highest point End Pass type
(mag) Time Alt. Az. Time Alt. Az. Time Alt. Az.
24 Jan 9.1 18:41:15 10° WSW 18:50:29 65° SSE 18:54:41 37° E visible
24 Jan 9.3 20:45:44 10° W 20:52:59 58° WSW 20:52:59 58° WSW visible
24 Jan 11.1 22:50:33 10° W 22:51:17 13° W 22:51:17 13° W visible
25 Jan 9.1 18:19:41 10° WSW 18:28:52 64° SSE 18:34:18 29° E visible
25 Jan 9.0 20:24:07 10° W 20:32:36 71° SW 20:32:36 71° SW visible
25 Jan 10.8 22:28:55 10° W 22:30:55 18° W 22:30:55 18° W visible
26 Jan 9.2 17:58:07 10° SW 18:07:16 62° SSE 18:13:55 22° E visible
26 Jan 8.8 20:02:30 10° W 20:11:57 77° S 20:12:13 77° SSE visible
26 Jan 10.5 22:07:18 10° W 22:10:31 24° W 22:10:31 24° W visible
27 Jan 9.2 17:36:32 10° SW 17:45:40 61° SSE 17:53:31 16° E visible
27 Jan 8.9 19:40:54 10° W 19:50:19 78° S 19:51:49 66° ESE visible
27 Jan 10.2 21:45:41 10° W 21:50:07 31° W 21:50:07 31° W visible
28 Jan 9.3 17:14:58 10° SW 17:24:03 60° SSE 17:33:08 11° E visible
28 Jan 8.9 19:19:16 10° W 19:28:40 78° S 19:31:26 52° ESE visible
28 Jan 9.9 21:24:03 10° W 21:29:44 39° W 21:29:44 39° W visible
29 Jan 9.0 18:57:40 10° W 19:07:03 78° S 19:11:02 41° ESE visible
29 Jan 9.5 21:02:26 10° W 21:09:20 49° WSW 21:09:20 49° WSW visible
30 Jan 9.0 18:36:03 10° W 18:45:25 77° S 18:50:39 31° E visible
30 Jan 9.2 20:40:49 10° W 20:48:58 59° SW 20:48:58 59° SW visible
30 Jan 11.0 22:46:04 10° W 22:47:16 14° W 22:47:16 14° W visible
31 Jan 9.0 18:14:26 10° W 18:23:46 77° S 18:30:17 24° E visible
31 Jan 9.1 20:19:12 10° W 20:28:29 63° SSW 20:28:36 63° SSW visible
31 Jan 10.8 22:24:23 10° W 22:26:55 18° W 22:26:55 18° W visible
01 Feb 9.1 17:52:49 10° W 18:02:09 77° S 18:09:57 17° E visible
01 Feb 9.0 19:57:35 10° W 20:06:52 65° SSW 20:08:16 59° SSE visible
01 Feb 10.5 22:02:42 10° W 22:06:34 23° W 22:06:34 23° W visible
02 Feb 9.1 17:31:12 10° WSW 17:40:32 77° S 17:49:38 12° E visible
02 Feb 9.1 19:35:58 10° W 19:45:15 66° SSW 19:47:57 49° SE visible
02 Feb 10.3 21:41:03 10° W 21:46:15 28° WSW 21:46:15 28° WSW visible
